EW3029 Weather Reports


time (UTC)temp
F
wind
direction
speed
knots
gust
knots
rain 1hr
in
rain 24hr
in
rain mn
in
humidity
%
barometer
mb
20260906203024 102 223 0.9 6.1 0.00 0.00 0.00 32 1011.3
20260906201522 103 274 0.9 5.2 0.00 0.00 0.00 31 1011.4
20260906200019 103 235 0.9 5.2 0.00 0.00 0.00 31 1011.8
20260906194515 103 146 0.0 2.6 0.00 0.00 0.00 32 1012.0
20260906193013 102 178 1.7 7.8 0.00 0.00 0.00 33 1012.2
20260906191511 101 189 1.7 7.8 0.00 0.00 0.00 34 1012.3
20260906190012 100 219 1.7 5.2 0.00 0.00 0.00 34 1012.6
20260906184509 102 163 0.0 4.3 0.00 0.00 0.00 34 1012.7
20260906183006 101 206 2.6 8.7 0.00 0.00 0.00 35 1012.9
20260906181509 100 37 1.7 5.2 0.00 0.00 0.00 35 1013.2
20260906180006 100 217 0.9 7.0 0.00 0.00 0.00 36 1013.3
20260906174501 100 208 0.9 3.5 0.00 0.00 0.00 36 1013.6
20260906173057 99 221 0.0 4.3 0.00 0.00 0.00 39 1014.0
20260906171555 98 212 0.0 6.1 0.00 0.00 0.00 39 1014.2
20260906170055 96 230 0.9 5.2 0.00 0.00 0.00 42 1014.4
20260906164554 96 218 0.0 3.5 0.00 0.00 0.00 42 1014.7
20260906163052 96 218 0.0 3.5 0.00 0.00 0.00 42 1014.7
20260906161551 97 222 0.0 2.6 0.00 0.00 0.00 43 1014.7
20260906160046 95 189 0.0 4.3 0.00 0.00 0.00 42 1014.6
20260906154547 94 205 0.0 3.5 0.00 0.00 0.00 45 1014.6
20260906153045 94 214 0.0 1.7 0.00 0.00 0.00 49 1014.4
20260906151538 93 226 0.9 2.6 0.00 0.00 0.00 48 1014.4
20260906150046 92 239 0.9 3.5 0.00 0.00 0.00 48 1014.4
20260906144531 91 226 0.0 1.7 0.00 0.00 0.00 51 1014.4
20260906143026 89 196 0.0 1.7 0.00 0.00 0.00 55 1014.4
20260906141521 87 196 0.0 1.7 0.00 0.00 0.00 59 1014.4
20260906140030 83 196 0.0 1.7 0.00 0.00 0.00 64 1014.3
20260906134513 80 195 0.0 0.0 0.00 0.00 0.00 75 1014.1
20260906133022 77 195 0.0 0.0 0.00 0.00 0.00 80 1014.1
20260906131509 76 195 0.0 0.0 0.00 0.00 0.00 81 1014.0
20260906130018 76 195 0.0 0.0 0.00 0.00 0.00 82 1013.9
20260906124504 75 195 0.0 0.0 0.00 0.00 0.00 83 1013.7
20260906123002 74 195 0.0 0.0 0.00 0.00 0.00 81 1013.6
20260906121501 74 195 0.0 0.0 0.00 0.00 0.00 82 1013.3
20260906120135 74 195 0.0 0.0 0.00 0.00 0.00 80 1013.3
20260906114614 75 195 0.0 0.0 0.00 0.00 0.00 79 1013.2
20260906113055 75 195 0.0 0.0 0.00 0.00 0.00 79 1012.9
20260906111603 75 195 0.0 0.0 0.00 0.00 0.00 79 1012.8
20260906110053 74 195 0.0 0.0 0.00 0.00 0.00 79 1012.7
20260906104551 75 195 0.0 0.0 0.00 0.00 0.00 79 1012.7
20260906103052 75 195 0.0 0.0 0.00 0.00 0.00 78 1012.5
20260906101548 75 195 0.0 0.0 0.00 0.00 0.00 78 1012.5
20260906100057 76 195 0.0 0.0 0.00 0.00 0.00 77 1012.4
20260906094550 75 195 0.0 0.0 0.00 0.00 0.00 76 1012.4
20260906093044 76 195 0.0 0.0 0.00 0.00 0.00 75 1012.3
20260906091543 76 195 0.0 0.0 0.00 0.00 0.00 74 1012.3
20260906090042 76 195 0.0 0.0 0.00 0.00 0.00 73 1012.2
20260906084541 76 195 0.0 0.0 0.00 0.00 0.00 73 1012.3
20260906083041 76 195 0.0 0.0 0.00 0.00 0.00 75 1012.1
20260906081541 76 195 0.0 0.0 0.00 0.00 0.00 75 1012.0
20260906080038 76 195 0.0 0.0 0.00 0.00 0.00 74 1012.0
20260906074538 77 195 0.0 0.0 0.00 0.00 0.00 73 1012.1
20260906073033 77 195 0.0 0.0 0.00 0.00 0.00 73 1012.1
20260906071532 78 195 0.0 0.0 0.00 0.00 0.00 71 1012.1
20260906070030 78 195 0.0 0.0 0.00 0.00 0.00 70 1012.2
20260906064527 78 195 0.0 0.0 0.00 0.00 0.00 67 1012.1
20260906063030 79 195 0.0 0.0 0.00 0.00 0.00 66 1012.1
20260906061524 80 195 0.0 0.0 0.00 0.00 0.00 63 1012.1
20260906060023 80 195 0.0 0.0 0.00 0.00 0.00 64 1012.2
20260906054537 81 195 0.0 0.0 0.00 0.00 0.00 64 1012.1
20260906053020 81 195 0.0 0.0 0.00 0.00 0.00 61 1012.0
20260906051524 80 195 0.0 1.7 0.00 0.00 0.00 64 1011.9
20260906050014 80 195 0.0 0.0 0.00 0.00 0.00 66 1011.8
20260906044512 80 195 0.0 0.0 0.00 0.00 0.00 66 1011.7
20260906043011 80 195 0.0 0.0 0.00 0.00 0.00 65 1011.7
20260906041510 81 195 0.0 0.0 0.00 0.00 0.00 65 1011.9
20260906040009 82 195 0.0 0.0 0.00 0.00 0.00 65 1011.9
20260906034509 82 195 0.0 0.0 0.00 0.00 0.00 61 1011.9
20260906033009 83 195 0.0 0.0 0.00 0.00 0.00 59 1011.7
20260906031523 84 195 0.0 0.0 0.00 0.00 0.00 57 1011.7
20260906030011 85 195 0.0 0.0 0.00 0.00 0.00 55 1011.6
20260906024526 87 195 0.0 0.0 0.00 0.00 0.00 53 1011.5
20260906023007 86 195 0.0 0.9 0.00 0.00 0.00 51 1011.3
20260906021505 88 195 0.0 0.0 0.00 0.00 0.00 48 1011.1
20260906020005 90 195 0.0 0.0 0.00 0.00 0.00 44 1011.0
20260906014512 91 195 0.0 0.0 0.00 0.00 0.00 42 1010.9
20260906013003 92 195 0.0 0.0 0.00 0.00 0.00 41 1010.6
20260906011503 93 197 0.0 0.0 0.00 0.00 0.00 40 1010.5
20260906010002 95 197 0.0 1.7 0.00 0.00 0.00 38 1010.4
20260906004502 95 217 0.9 2.6 0.00 0.00 0.00 37 1010.2
20260906003001 96 236 0.9 3.5 0.00 0.00 0.00 36 1010.2
20260906001600 97 211 1.7 5.2 0.00 0.00 0.00 34 1010.1
20260906001501 97 226 1.7 5.2 0.00 0.00 0.00 35 1010.1
20260906000107 97 203 0.0 2.6 0.00 0.00 0.00 35 1010.1
20260905234606 98 213 0.9 4.3 0.00 0.00 0.00 34 1010.0
20260905233059 100 195 1.7 5.2 0.00 0.00 0.00 31 1009.8
20260905231559 100 221 0.9 6.1 0.00 0.00 0.00 31 1009.8
20260905230058 100 239 2.6 7.0 0.00 0.00 0.00 32 1009.8
20260905224557 102 143 0.9 3.5 0.00 0.00 0.00 31 1009.8
20260905223057 101 10 0.9 5.2 0.00 0.00 0.00 31 1009.6
20260905221556 101 231 0.9 7.8 0.00 0.00 0.00 32 1009.7
20260905220053 102 217 1.7 7.0 0.00 0.00 0.00 31 1009.9
20260905214552 101 187 2.6 5.2 0.00 0.00 0.00 32 1010.1
20260905213058 101 195 2.6 9.6 0.00 0.00 0.00 33 1010.2
20260905211603 101 212 3.5 7.8 0.00 0.00 0.00 33 1010.4
20260905210057 100 242 1.7 9.6 0.00 0.00 0.00 33 1010.6
20260905204545 101 190 0.9 7.0 0.00 0.00 0.00 33 1010.8